{"data":{"norad_id":47235,"epoch":"2026-06-17T05:40:34.924512Z","epoch_age_seconds":8307209,"freshness":"OLD","line1":"1 47235U 20094B   26168.23651533  .00002046  00000+0  14016-3 0  9993","line2":"2 47235  28.9978  15.0776 0010587 333.3126  26.6927 15.02194018301731","mean_motion":15.02194018,"eccentricity":0.0010587,"inclination_deg":28.9978,"raan_deg":15.0776,"arg_perigee_deg":333.3126,"mean_anomaly_deg":26.6927,"bstar":0.00014016,"rev_number":30173,"period_min":95.859787933199,"perigee_km":552.78680909624,"apogee_km":567.47790062822,"semimajor_km":6938.2693548622,"source":"CELESTRAK","updated_at":"2026-07-16T09:00:21.610807Z"}}